User: anonymous   Login
Location: Unspecified
(0.0000°N, 0.0000°E)
Time: 01:30:20
(UTC+00:00)
Language:

WGS F2 (USA 204) - Orbit

View from above orbital plane
View from above orbital plane
View from above satellite
View from above satellite

Ground track
Ground track

The orbit data is extracted from the following two-line orbital elements,

1 34713U 09017A   23081.48680396  .00000053  00000-0  00000+0 0  9990
2 34713   0.0044 182.6865 0000220 135.3354  94.4205  1.00271194 51085
Epoch (UTC): 22 March 2023 11:40:59
Eccentricity: 0.0000220
inclination: 0.0044°
perigee height: 35785 km
apogee height: 35787 km
right ascension of ascending node: 182.6865°
argument of perigee: 135.3354°
revolutions per day: 1.00271194
mean anomaly at epoch: 94.4205°
orbit number at epoch: 5108

The dashed part of the orbit path shows where the satellite is in the earth's shadow,  

DLR